Home > Weather > Baton Rouge > Past weeks

Flag for U.S.A. Weather for the Past 2 Weeks in Baton Rouge, Louisiana, U.S.A.

Now
52 °F

Clear.


Feels Like: 48 °F
Forecast: 45 / 75 °F
Wind: 13 mph from Southwest

Location: Baton Rouge Metropolitan - Ryan Field

Current Time: Feb 10, 2016 at 8:43:57 PM

Latest Report: Feb 10, 2016 at 7:53 PM


Visibility: 10 mi

Pressure: 30.24 "Hg

Humidity: 47%

Dew point: 32 °F

Location of Baton RougeLocation

Historic Weather in Baton Rouge — Graph

°F

Baton Rouge Temperature Yesterday

Maximum temperature yesterday: 56 °F (at 2:53 PM)
Minimum temperature yesterday: 40 °F (at 5:53 AM)
Average temperature yesterday: 47 °F

High & Low Weather Summary for the Past Weeks

 TemperatureHumidityPressure
High78 °F (Feb 1, 1:53 PM)100% (Feb 1, 3:53 AM)30.53 "Hg (Feb 1, 3:53 AM)
Low30 °F (Feb 5, 4:53 AM)17% (Feb 8, 3:53 PM)29.70 "Hg (Feb 2, 1:53 PM)
Average53 °F59%30.12 "Hg
* Reported Jan 26 6:53 PM — Feb 10 6:53 PM, Baton Rouge, Weather by CustomWeather, © 2016

Note: Actual official high and low records may vary slightly from our data, if they occured in-between our weather recording intervals... More about our weather records

Advertising

Baton Rouge Weather History for the Previous 24 Hours

 ConditionsComfort  
Time TempWeatherWind HumidityBarometerVisibility
6:53 PM
Wed, Feb 10
51 °FClear.7 mph41%30.24 "Hg10 mi
5:53 PM53 °FClear.5 mph37%30.25 "Hg10 mi
4:53 PM57 °FSunny.6 mph31%30.25 "Hg10 mi
3:53 PM57 °FSunny.6 mph28%30.26 "Hg10 mi
2:53 PM57 °FSunny.6 mph26%30.27 "Hg10 mi
1:53 PM55 °FSunny.No wind25%30.30 "Hg10 mi
12:53 PM55 °FSunny.6 mph25%30.33 "Hg10 mi
11:53 AM53 °FSunny.9 mph27%30.37 "Hg10 mi
10:53 AM50 °FSunny.5 mph29%30.38 "Hg10 mi
9:53 AM48 °FSunny.7 mph30%30.38 "Hg5 mi
8:53 AM45 °FSunny.N/A37%30.39 "Hg10 mi
7:53 AM41 °FSunny.8 mph49%30.35 "Hg10 mi
6:53 AM35 °FSunny.9 mph61%30.32 "Hg10 mi
5:53 AM39 °FClear.8 mph46%30.31 "Hg10 mi
4:53 AM40 °FClear.12 mph47%30.30 "Hg10 mi
3:53 AM42 °FClear.N/A43%30.28 "Hg10 mi
2:53 AM42 °FClear.N/A45%30.27 "Hg10 mi
1:53 AM42 °FClear.N/A49%30.25 "Hg10 mi
12:53 AM44 °FClear.N/A45%30.24 "Hg10 mi
11:53 PM
Tue, Feb 9
43 °FClear.N/A49%30.23 "Hg10 mi
10:53 PM45 °FClear.N/A44%30.23 "Hg10 mi
9:53 PM44 °FClear.N/A47%30.22 "Hg10 mi
8:53 PM46 °FClear.N/A42%30.19 "Hg10 mi
Weather by CustomWeather, © 2016

See weather overviewHow to use our weather pages